SCP
-0 -0 -0 -0 -0 0 0 0 0 0 0 0 0 0 0 -0 -0 -0 -0 -0 -0 -0 -0 -0 -0 0 0 0 -0 -0 0 -0 -0 -0 0 0 0 0 -0 -0 0 -0 -0 0 -0 0 -0
-0 -0 -0 -0 -0 -0 0 0 0 0 0 0 0 0 0 0 0 -0 -0 -0 -0 -0 -0 0 0 0 0 -0 0 -0 0 0 0 0 -0 0 0 0 0 0 -0 0 0 -0 -0 -0 -0
-0 -0 -0 -0 -0 -0 -0 0 0 0 0 0 0 0 0 0 0 0 -0 -0 -0 0 0 0 0 0 0 -0 0 -0 0 -0 -0 -0 -0 -0 -0 0 0 0 0 -0 -0 -0 -0 -0 -0
0 -0 -0 -0 -0 -0 -0 -0 0 0 0 0 0 0 0 0 0 0 0 -0 0 0 0 0 -0 0 0 -0 0 0 0 -0 -0 -0 -0 0 -0 -0 0 -0 -0 -0 -0 -0 -0 -0 -0
0 0 -0 -0 -0 -0 -0 -0 -0 0 0 0 0 0 0 0 0 0 0 0 0 0 0 0 0 0 0 0 0 0 0 -0 -0 0 0 0 -0 0 -0 0 -0 -0 -0 -0 -0 -0 -0
0 0 0 -0 -0 -0 -0 -0 -0 -0 0 0 0 0 0 0 0 0 0 0 0 0 -0 0 0 0 -0 0 -0 -0 0 0 -0 -0 -0 0 -0 0 0 -0 -0 -0 -0 -0 -0 -0 0
0 0 0 0 0 0 -0 -0 -0 -0 -0 0 0 0 0 0 0 0 0 0 0 0 0 0 0 0 -0 -0 0 0 -0 -0 -0 -0 0 0 0 0 -0 -0 -0 -0 0 -0 -0 -0 -0
0 0 0 0 0 0 0 0 0 -0 -0 -0 0 0 0 0 0 0 0 0 0 0 0 0 0 0 0 0 0 0 0 -0 0 0 -0 0 0 -0 -0 -0 -0 0 0 -0 0 -0 -0
0 0 0 0 0 0 0 0 0 0 0 0 0 0 0 0 0 0 0 0 0 0 0 0 0 0 0 0 0 0 -0 0 0 0 0 0 -0 -0 -0 -0 -0 -0 -0 -0 -0 0 0
0 0 0 0 0 0 0 0 0 0 0 0 0 0 0 -0 0 0 0 0 0 0 0 0 0 0 0 0 0 0 0 -0 0 0 0 -0 -0 -0 -0 -0 -0 -0 -0 -0 0 0 0
0 0 0 0 0 0 0 0 0 0 0 0 0 0 0 0 0 0 0 0 0 0 0 0 0 0 0 0 0 0 0 -0 0 -0 -0 -0 -0 -0 -0 0 -0 -0 -0 -0 -0 -0 -0
0 0 0 0 0 0 0 0 0 0 0 0 0 0 0 0 0 0 0 0 0 0 0 0 0 0 0 0 -0 0 0 -0 0 0 0 -0 -0 -0 0 0 -0 -0 0 0 -0 -0 -0
0 0 0 0 0 0 0 0 0 0 0 0 0 0 0 0 0 0 0 0 0 0 0 0 0 0 0 0 0 0 0 0 -0 -0 -0 -0 -0 0 -0 -0 -0 -0 0 0 0 0 0
0 0 0 0 0 0 0 0 0 0 0 0 0 0 0 0 0 0 0 0 0 0 0 0 0 0 0 0 0 -0 0 0 0 -0 0 -0 -0 -0 0 0 -0 -0 -0 -0 -0 -0 0
0 0 0 0 0 0 0 0 0 0 0 0 0 0 0 0 0 0 0 0 0 0 0 0 0 0 0 0 0 0 0 0 0 -0 -0 0 -0 0 -0 -0 -0 0 -0 0 -0 0 0
0 0 0 0 0 0 0 0 0 0 0 0 0 0 0 -0 0 0 0 0 0 0 0 0 0 0 0 0 0 0 0 0 0 0 -0 0 0 -0 0 0 -0 -0 -0 -0 -0 -0 -0
0 0 0 0 0 0 0 0 0 0 0 0 0 0 0 -0 0 0 0 0 0 0 0 0 0 0 0 0 0 0 0 0 0 0 0 -0 0 0 0 0 -0 -0 -0 0 -0 0 -0
0 0 0 0 0 0 0 0 0 0 0 0 0 0 0 0 0 0 0 0 0 0 0 0 0 0 0 0 0 0 0 0 0 0 0 -0 -0 0 0 0 0 -0 0 0 -0 -0 0
0 0 0 0 0 0 0 0 0 0 0 0 0 0 0 0 0 0 0 0 0 0 0 0 0 0 0 0 0 0 0 0 0 0 0 0 0 0 -0 0 0 0 -0 0 0 0 -0
0 0 0 0 0 0 0 0 0 0 0 0 0 0 0 0 0 0 0 0 0 0 0 0 0 0 0 0 0 0 0 0 0 0 0 0 0 0 0 0 0 0 0 -0 0 0 0
0 0 0 0 0 0 0 0 0 0 0 0 0 0 0 0 0 0 0 0 0 0 0 0 0 0 0 0 0 0 0 0 0 0 0 0 0 0 0 0 0 0 0 0 -0 0 -0
0 0 0 0 0 0 0 0 0 0 0 0 0 0 0 0 0 0 0 0 0 0 0 0 0 0 0 0 0 0 0 0 0 0 0 0 0 0 0 0 0 0 0 0 0 0 0
0 0 0 0 0 0 0 0 0 0 0 0 0 0 0 0 0 0 0 0 0 0 0 0 0 0 0 0 0 0 0 0 0 0 0 0 0 0 0 0 0 0 0 0 0 -0 0
0 0 0 0 0 0 0 0 0 0 0 0 0 0 0 0 0 0 0 0 0 0 0 0 0 0 0 0 0 0 0 0 0 0 0 0 0 0 0 0 0 0 0 0 0 0 0
0 0 0 0 0 0 0 0 0 0 0 0 0 0 0 0 0 0 0 0 0 0 0 0 0 0 0 0 0 0 0 0 0 0 0 0 0 0 0 0 0 0 0 0 0 0 0
0 0 0 0 0 0 0 0 0 0 0 0 0 0 0 0 0 0 0 0 0 0 0 0 0 0 0 0 0 0 0 0 0 0 0 0 0 0 0 0 0 0 0 0 0 0 0
0 0 0 0 0 0 0 0 0 0 0 0 0 0 0 0 0 0 0 0 0 0 0 0 0 0 0 0 0 0 0 0 0 0 0 0 0 0 0 0 0 0 0 0 0 0 0
0 0 0 0 0 0 0 0 0 0 0 0 0 0 0 0 0 0 0 0 0 0 0 0 0 0 0 0 0 0 0 0 0 0 1 0 0 0 0 0 0 0 0 0 2 2 1
0 0 0 0 0 0 0 0 0 0 0 0 0 0 0 0 0 0 0 0 0 0 0 0 0 0 0 0 0 0 0 0 0 0 0 0 0 0 1 1 3 2 2 2 2 2 1
Wind_Speed_500mb
32 31 30 30 30 32 34 36 35 35 34 34 34 35 35 35 36 36 35 34 31 25 19 13 13 12 14 14 29 10 14 26 34 37 33 28 32 39 39 13 13 11 18 12 21 12 30
32 33 32 33 34 34 34 36 39 38 37 37 36 35 36 36 36 36 35 33 31 25 18 11 11 14 16 24 5 12 10 26 32 37 30 32 31 36 33 9 16 19 8 21 28 8 26
33 34 34 34 34 36 38 37 39 42 40 40 38 37 38 38 35 36 36 33 28 22 12 8 8 16 18 28 4 10 20 28 31 34 29 31 33 25 23 4 6 8 19 19 34 23 17
34 33 34 35 36 37 38 41 41 41 43 44 43 38 38 39 37 34 34 32 25 16 9 5 4 13 18 21 14 16 25 27 28 30 29 24 24 26 36 23 7 24 30 24 29 31 16
36 36 37 37 38 37 38 40 42 43 43 45 46 44 37 38 38 34 32 31 23 12 8 7 6 9 29 23 25 23 31 33 31 28 26 21 23 30 36 24 26 27 28 31 30 34 33
36 34 37 39 40 41 39 39 42 43 44 45 46 45 41 37 37 35 27 29 25 17 12 12 16 15 37 33 28 32 31 31 34 28 28 21 22 26 31 25 27 31 20 34 27 23 27
41 40 38 36 39 42 44 43 40 43 44 46 47 46 43 38 35 33 24 23 12 8 26 32 28 32 16 27 32 37 37 35 35 33 29 35 25 29 41 35 42 29 13 33 34 29 14
38 39 39 39 41 40 40 46 46 41 44 45 47 46 44 38 33 28 23 13 18 22 28 43 46 44 17 35 39 39 42 37 36 35 38 26 36 38 38 39 27 17 21 4 18 32 22
42 39 39 40 41 41 44 42 45 48 43 44 47 47 45 38 29 17 18 29 32 24 27 41 51 49 40 35 38 48 51 50 38 38 39 39 37 41 39 35 24 21 22 20 19 28 15
42 41 42 41 42 44 43 46 46 46 47 45 44 45 44 39 15 13 19 10 12 15 15 33 52 57 51 40 43 46 56 56 27 40 41 39 44 40 33 25 22 25 28 27 23 24 20
46 45 44 44 45 44 46 48 48 48 47 47 45 41 38 34 30 24 13 12 13 10 13 20 51 39 57 54 22 48 55 60 41 35 32 41 36 23 21 26 28 33 33 19 15 12 23
49 50 50 48 48 49 49 50 52 50 51 48 46 41 41 17 33 24 28 24 15 14 25 7 40 43 50 52 59 55 57 61 46 36 40 41 42 25 32 30 34 37 2 14 21 22 26
49 50 53 53 51 49 49 51 54 55 53 53 51 39 45 37 30 4 15 21 15 23 26 25 42 42 52 48 51 47 50 48 42 34 36 38 44 30 29 33 32 35 23 13 18 21 24
51 52 52 54 58 54 51 52 53 56 57 56 57 44 41 45 28 26 18 17 28 26 56 25 36 37 52 50 51 52 50 44 52 46 30 33 31 34 32 39 33 36 29 22 28 20 27
54 52 51 52 56 59 57 54 54 54 56 58 59 44 37 34 27 33 32 26 37 46 45 52 34 44 47 53 43 51 53 50 52 53 41 36 43 40 39 37 38 28 30 41 40 31 11
54 49 48 51 54 58 60 52 53 55 53 52 60 50 43 31 37 37 25 48 46 54 62 52 46 36 41 53 58 53 49 49 53 55 51 40 28 43 44 34 40 34 34 31 23 22 25
53 49 47 53 56 60 56 48 50 54 51 45 38 21 14 40 43 45 32 51 53 70 64 51 48 42 38 43 55 56 56 47 57 53 52 49 41 33 41 33 41 36 34 21 31 23 19
52 54 47 51 51 52 49 48 45 49 50 35 16 13 26 34 32 37 35 54 61 54 73 57 47 42 42 38 45 57 60 54 61 58 58 52 34 29 45 35 36 41 37 30 20 22 21
52 49 47 45 48 45 44 45 41 40 42 43 21 41 37 37 26 30 39 52 55 55 56 55 46 39 42 45 40 46 59 56 57 49 49 42 37 26 36 41 37 33 34 38 31 27 28
45 46 41 38 41 44 44 42 38 33 31 30 17 11 37 54 51 42 42 48 52 72 58 62 52 44 43 46 43 40 46 45 53 53 52 45 38 34 29 32 38 45 44 42 37 24 29
39 39 41 41 39 41 42 43 39 31 22 24 15 17 37 17 35 40 47 47 49 54 65 68 50 41 42 43 44 39 38 36 49 35 33 38 34 41 49 41 35 35 40 41 42 27 30
45 43 43 42 41 39 39 38 40 34 22 20 17 27 45 50 50 36 34 52 54 48 51 56 45 41 48 46 42 34 40 41 40 29 29 34 25 34 44 44 48 41 47 44 44 39 35
47 44 43 46 44 37 36 39 36 28 18 14 25 34 33 32 33 31 30 35 50 49 44 62 46 47 49 43 46 56 33 45 40 34 29 31 27 26 36 46 43 42 39 36 36 42 37
43 40 41 41 41 38 35 34 30 20 22 22 27 32 33 26 29 32 44 36 41 40 41 40 52 41 39 22 24 46 31 42 37 39 38 32 25 25 27 31 46 29 34 25 29 30 27
41 40 40 39 41 37 33 33 26 22 22 26 23 24 34 24 38 44 43 41 38 40 47 38 27 13 14 11 18 28 28 32 38 6 35 40 29 27 24 30 32 45 22 14 13 17 12
37 32 30 31 33 35 33 31 27 25 21 26 25 26 36 30 30 51 42 41 23 24 27 27 16 14 8 10 20 27 29 28 34 24 3 26 37 25 21 37 38 24 1 27 13 22 18
35 32 30 30 32 33 30 29 28 25 24 24 26 25 25 36 56 40 36 27 37 34 19 19 39 4 8 17 22 26 31 42 35 34 26 21 9 19 26 28 29 11 23 15 14 3 20
34 33 35 33 30 28 27 26 29 26 25 24 26 23 23 35 62 47 41 38 35 33 16 34 21 33 16 23 25 24 24 33 38 35 32 26 20 23 19 24 34 36 30 19 19 29 31
36 32 32 34 33 30 24 29 26 26 24 25 27 22 23 32 51 49 51 51 41 28 25 29 26 24 16 13 23 19 27 23 29 30 29 29 17 25 10 3 32 42 45 43 37 38 35
Wind_Direction_500mb
350 348 344 342 341 339 338 336 336 335 336 336 334 331 332 331 331 330 329 331 331 326 315 293 282 249 228 241 258 246 236 212 202 195 209 224 231 239 251 217 230 254 119 125 131 197 103
347 344 342 339 336 335 335 334 332 332 332 331 329 328 327 328 329 328 326 328 331 326 308 282 272 227 217 253 171 251 248 196 190 191 208 216 229 244 305 202 232 96 200 142 143 185 136
346 342 340 339 337 334 333 332 330 330 330 330 327 325 323 324 325 325 324 325 330 329 313 290 260 209 241 234 263 227 189 191 186 192 207 215 235 282 238 232 308 175 205 175 145 174 180
348 346 343 340 338 335 333 331 330 329 328 327 327 323 322 321 321 321 321 321 322 319 306 296 225 206 251 211 218 194 181 181 188 201 215 221 241 262 269 286 188 248 225 170 158 173 171
346 344 342 341 340 337 333 331 330 328 326 326 324 322 321 319 318 317 318 315 309 292 279 246 173 240 253 220 204 194 180 181 188 201 223 229 227 244 253 252 219 214 240 187 164 185 151
344 343 341 338 335 334 334 330 329 327 325 323 323 322 319 318 316 314 315 310 293 265 243 241 227 251 235 215 195 186 188 190 187 198 208 221 225 233 245 233 238 217 193 164 173 185 171
339 338 336 335 332 332 330 330 327 325 324 323 322 320 319 317 315 313 312 311 298 233 214 222 187 219 145 195 181 188 185 185 190 202 210 209 218 215 231 230 251 296 239 202 163 167 214
333 332 331 330 328 328 327 326 327 323 323 322 321 318 316 315 311 306 294 256 335 328 297 242 247 235 256 165 174 190 185 194 198 205 211 191 226 228 230 246 257 279 299 214 152 155 198
327 327 327 326 325 326 326 326 326 324 321 321 320 319 316 314 311 308 299 263 284 305 286 268 231 226 205 186 196 192 190 199 198 211 205 225 210 228 237 241 250 212 241 220 233 158 192
325 323 323 321 321 321 322 323 323 322 320 319 319 318 319 316 299 261 270 314 264 293 281 255 218 214 207 207 224 195 197 198 193 213 222 226 249 205 236 237 218 223 223 247 190 191 209
332 326 322 320 317 317 318 319 320 320 318 317 317 315 312 320 291 262 338 307 288 267 267 209 192 190 198 201 186 205 194 204 228 210 217 221 235 223 224 223 220 242 191 231 259 233 254
334 332 331 325 321 319 317 316 316 317 317 316 312 312 303 303 290 255 261 301 277 233 238 238 162 186 192 199 224 180 188 213 225 230 227 240 209 217 227 222 213 235 172 180 239 252 242
329 328 329 329 327 324 319 317 315 315 316 315 308 302 291 277 262 338 267 254 227 234 228 241 158 200 197 193 212 180 189 201 218 223 222 224 240 207 215 221 220 223 196 208 224 229 235
321 321 323 326 327 326 323 320 316 315 316 317 307 302 282 267 251 233 274 227 231 224 240 253 172 199 202 198 205 217 188 203 215 221 217 218 219 208 199 224 204 210 211 224 208 219 241
315 314 318 323 325 326 326 323 317 317 318 322 313 308 273 262 224 195 228 226 219 232 223 243 247 190 209 213 203 208 205 207 208 219 230 205 224 192 218 221 236 200 223 245 262 288 178
322 312 312 316 319 323 325 323 319 319 321 330 323 317 274 214 212 192 218 235 231 233 249 268 256 235 209 208 211 213 200 209 217 210 228 244 214 223 194 205 237 217 210 239 256 268 284
317 317 311 313 317 320 323 324 323 323 324 330 322 292 300 180 185 206 217 232 232 251 244 260 268 258 243 227 218 216 210 208 214 213 220 238 251 219 188 195 216 221 235 225 245 221 245
308 317 312 314 318 324 327 325 324 333 330 331 303 260 198 179 196 224 229 231 248 246 246 258 262 257 258 263 232 224 224 211 207 213 208 226 245 248 197 196 214 231 216 222 243 250 280
299 307 313 314 317 321 326 329 326 338 345 341 296 274 250 214 227 231 239 236 243 246 250 243 248 250 264 272 274 240 226 218 213 206 223 203 233 241 244 195 193 233 232 220 233 260 270
296 304 307 313 318 320 321 324 325 333 336 338 289 271 222 227 238 254 246 238 232 240 246 249 242 232 237 260 268 272 239 213 213 214 207 224 216 233 227 219 198 205 224 242 236 220 229
300 300 303 309 310 315 317 318 318 321 322 325 251 256 297 281 219 233 248 264 258 232 231 240 246 236 241 244 254 260 264 255 209 212 184 227 223 224 241 255 223 204 213 233 243 249 257
297 294 294 296 300 307 310 316 315 312 307 265 281 328 319 298 294 293 279 234 253 252 229 220 235 233 240 233 246 243 248 254 220 175 184 210 224 229 242 245 253 245 209 203 224 235 234
293 291 293 292 296 298 301 306 310 304 314 283 285 302 317 289 291 288 263 255 237 256 263 241 211 226 248 237 241 244 294 266 251 184 192 212 224 213 234 240 248 245 246 210 212 214 223
296 289 290 289 291 299 297 300 305 299 293 285 289 302 298 284 284 272 276 262 262 243 251 267 235 223 231 267 268 269 269 276 267 201 196 196 220 223 226 231 244 249 243 227 253 267 266
297 293 294 287 287 295 294 290 294 288 291 293 283 281 288 283 286 284 291 292 259 253 250 260 291 216 106 289 247 240 236 257 267 240 216 189 217 216 233 233 235 246 227 161 206 243 308
291 292 298 295 289 286 284 287 287 285 289 297 283 278 282 275 259 339 317 300 288 250 252 231 245 9 8 261 227 220 217 221 231 203 337 214 195 218 208 244 240 233 155 194 221 229 224
284 285 291 292 293 289 286 277 271 269 280 289 285 281 288 277 271 289 304 329 315 331 304 227 242 200 262 243 245 219 223 222 219 216 166 236 300 235 219 237 242 180 145 138 195 163 77
281 281 287 290 290 294 289 274 272 262 273 277 282 282 289 278 281 279 307 308 318 341 324 342 275 210 225 226 236 233 226 225 233 209 196 196 232 238 248 238 243 132 137 178 109 106 111
279 279 285 283 279 283 291 271 260 270 272 271 276 269 272 259 268 291 286 278 277 290 309 311 295 31 353 232 235 247 248 231 211 221 220 213 206 211 265 63 68 71 95 122 121 115 113
Wind_Speed_850mb
32 31 30 30 30 32 34 36 35 35 34 34 34 35 35 35 36 36 35 34 31 25 19 13 13 12 14 14 29 10 14 26 34 37 33 28 32 39 39 13 13 11 18 12 21 12 30
32 33 32 33 34 34 34 36 39 38 37 37 36 35 36 36 36 36 35 33 31 25 18 11 11 14 16 24 5 12 10 26 32 37 30 32 31 36 33 9 16 19 8 21 28 8 26
33 34 34 34 34 36 38 37 39 42 40 40 38 37 38 38 35 36 36 33 28 22 12 8 8 16 18 28 4 10 20 28 31 34 29 31 33 25 23 4 6 8 19 19 34 23 17
34 33 34 35 36 37 38 41 41 41 43 44 43 38 38 39 37 34 34 32 25 16 9 5 4 13 18 21 14 16 25 27 28 30 29 24 24 26 36 23 7 24 30 24 29 31 16
36 36 37 37 38 37 38 40 42 43 43 45 46 44 37 38 38 34 32 31 23 12 8 7 6 9 29 23 25 23 31 33 31 28 26 21 23 30 36 24 26 27 28 31 30 34 33
36 34 37 39 40 41 39 39 42 43 44 45 46 45 41 37 37 35 27 29 25 17 12 12 16 15 37 33 28 32 31 31 34 28 28 21 22 26 31 25 27 31 20 34 27 23 27
41 40 38 36 39 42 44 43 40 43 44 46 47 46 43 38 35 33 24 23 12 8 26 32 28 32 16 27 32 37 37 35 35 33 29 35 25 29 41 35 42 29 13 33 34 29 14
38 39 39 39 41 40 40 46 46 41 44 45 47 46 44 38 33 28 23 13 18 22 28 43 46 44 17 35 39 39 42 37 36 35 38 26 36 38 38 39 27 17 21 4 18 32 22
42 39 39 40 41 41 44 42 45 48 43 44 47 47 45 38 29 17 18 29 32 24 27 41 51 49 40 35 38 48 51 50 38 38 39 39 37 41 39 35 24 21 22 20 19 28 15
42 41 42 41 42 44 43 46 46 46 47 45 44 45 44 39 15 13 19 10 12 15 15 33 52 57 51 40 43 46 56 56 27 40 41 39 44 40 33 25 22 25 28 27 23 24 20
46 45 44 44 45 44 46 48 48 48 47 47 45 41 38 34 30 24 13 12 13 10 13 20 51 39 57 54 22 48 55 60 41 35 32 41 36 23 21 26 28 33 33 19 15 12 23
49 50 50 48 48 49 49 50 52 50 51 48 46 41 41 17 33 24 28 24 15 14 25 7 40 43 50 52 59 55 57 61 46 36 40 41 42 25 32 30 34 37 2 14 21 22 26
49 50 53 53 51 49 49 51 54 55 53 53 51 39 45 37 30 4 15 21 15 23 26 25 42 42 52 48 51 47 50 48 42 34 36 38 44 30 29 33 32 35 23 13 18 21 24
51 52 52 54 58 54 51 52 53 56 57 56 57 44 41 45 28 26 18 17 28 26 56 25 36 37 52 50 51 52 50 44 52 46 30 33 31 34 32 39 33 36 29 22 28 20 27
54 52 51 52 56 59 57 54 54 54 56 58 59 44 37 34 27 33 32 26 37 46 45 52 34 44 47 53 43 51 53 50 52 53 41 36 43 40 39 37 38 28 30 41 40 31 11
54 49 48 51 54 58 60 52 53 55 53 52 60 50 43 31 37 37 25 48 46 54 62 52 46 36 41 53 58 53 49 49 53 55 51 40 28 43 44 34 40 34 34 31 23 22 25
53 49 47 53 56 60 56 48 50 54 51 45 38 21 14 40 43 45 32 51 53 70 64 51 48 42 38 43 55 56 56 47 57 53 52 49 41 33 41 33 41 36 34 21 31 23 19
52 54 47 51 51 52 49 48 45 49 50 35 16 13 26 34 32 37 35 54 61 54 73 57 47 42 42 38 45 57 60 54 61 58 58 52 34 29 45 35 36 41 37 30 20 22 21
52 49 47 45 48 45 44 45 41 40 42 43 21 41 37 37 26 30 39 52 55 55 56 55 46 39 42 45 40 46 59 56 57 49 49 42 37 26 36 41 37 33 34 38 31 27 28
45 46 41 38 41 44 44 42 38 33 31 30 17 11 37 54 51 42 42 48 52 72 58 62 52 44 43 46 43 40 46 45 53 53 52 45 38 34 29 32 38 45 44 42 37 24 29
39 39 41 41 39 41 42 43 39 31 22 24 15 17 37 17 35 40 47 47 49 54 65 68 50 41 42 43 44 39 38 36 49 35 33 38 34 41 49 41 35 35 40 41 42 27 30
45 43 43 42 41 39 39 38 40 34 22 20 17 27 45 50 50 36 34 52 54 48 51 56 45 41 48 46 42 34 40 41 40 29 29 34 25 34 44 44 48 41 47 44 44 39 35
47 44 43 46 44 37 36 39 36 28 18 14 25 34 33 32 33 31 30 35 50 49 44 62 46 47 49 43 46 56 33 45 40 34 29 31 27 26 36 46 43 42 39 36 36 42 37
43 40 41 41 41 38 35 34 30 20 22 22 27 32 33 26 29 32 44 36 41 40 41 40 52 41 39 22 24 46 31 42 37 39 38 32 25 25 27 31 46 29 34 25 29 30 27
41 40 40 39 41 37 33 33 26 22 22 26 23 24 34 24 38 44 43 41 38 40 47 38 27 13 14 11 18 28 28 32 38 6 35 40 29 27 24 30 32 45 22 14 13 17 12
37 32 30 31 33 35 33 31 27 25 21 26 25 26 36 30 30 51 42 41 23 24 27 27 16 14 8 10 20 27 29 28 34 24 3 26 37 25 21 37 38 24 1 27 13 22 18
35 32 30 30 32 33 30 29 28 25 24 24 26 25 25 36 56 40 36 27 37 34 19 19 39 4 8 17 22 26 31 42 35 34 26 21 9 19 26 28 29 11 23 15 14 3 20
34 33 35 33 30 28 27 26 29 26 25 24 26 23 23 35 62 47 41 38 35 33 16 34 21 33 16 23 25 24 24 33 38 35 32 26 20 23 19 24 34 36 30 19 19 29 31
36 32 32 34 33 30 24 29 26 26 24 25 27 22 23 32 51 49 51 51 41 28 25 29 26 24 16 13 23 19 27 23 29 30 29 29 17 25 10 3 32 42 45 43 37 38 35
Wind_Direction_850mb
350 348 344 342 341 339 338 336 336 335 336 336 334 331 332 331 331 330 329 331 331 326 315 293 282 249 228 241 258 246 236 212 202 195 209 224 231 239 251 217 230 254 119 125 131 197 103
347 344 342 339 336 335 335 334 332 332 332 331 329 328 327 328 329 328 326 328 331 326 308 282 272 227 217 253 171 251 248 196 190 191 208 216 229 244 305 202 232 96 200 142 143 185 136
346 342 340 339 337 334 333 332 330 330 330 330 327 325 323 324 325 325 324 325 330 329 313 290 260 209 241 234 263 227 189 191 186 192 207 215 235 282 238 232 308 175 205 175 145 174 180
348 346 343 340 338 335 333 331 330 329 328 327 327 323 322 321 321 321 321 321 322 319 306 296 225 206 251 211 218 194 181 181 188 201 215 221 241 262 269 286 188 248 225 170 158 173 171
346 344 342 341 340 337 333 331 330 328 326 326 324 322 321 319 318 317 318 315 309 292 279 246 173 240 253 220 204 194 180 181 188 201 223 229 227 244 253 252 219 214 240 187 164 185 151
344 343 341 338 335 334 334 330 329 327 325 323 323 322 319 318 316 314 315 310 293 265 243 241 227 251 235 215 195 186 188 190 187 198 208 221 225 233 245 233 238 217 193 164 173 185 171
339 338 336 335 332 332 330 330 327 325 324 323 322 320 319 317 315 313 312 311 298 233 214 222 187 219 145 195 181 188 185 185 190 202 210 209 218 215 231 230 251 296 239 202 163 167 214
333 332 331 330 328 328 327 326 327 323 323 322 321 318 316 315 311 306 294 256 335 328 297 242 247 235 256 165 174 190 185 194 198 205 211 191 226 228 230 246 257 279 299 214 152 155 198
327 327 327 326 325 326 326 326 326 324 321 321 320 319 316 314 311 308 299 263 284 305 286 268 231 226 205 186 196 192 190 199 198 211 205 225 210 228 237 241 250 212 241 220 233 158 192
325 323 323 321 321 321 322 323 323 322 320 319 319 318 319 316 299 261 270 314 264 293 281 255 218 214 207 207 224 195 197 198 193 213 222 226 249 205 236 237 218 223 223 247 190 191 209
332 326 322 320 317 317 318 319 320 320 318 317 317 315 312 320 291 262 338 307 288 267 267 209 192 190 198 201 186 205 194 204 228 210 217 221 235 223 224 223 220 242 191 231 259 233 254
334 332 331 325 321 319 317 316 316 317 317 316 312 312 303 303 290 255 261 301 277 233 238 238 162 186 192 199 224 180 188 213 225 230 227 240 209 217 227 222 213 235 172 180 239 252 242
329 328 329 329 327 324 319 317 315 315 316 315 308 302 291 277 262 338 267 254 227 234 228 241 158 200 197 193 212 180 189 201 218 223 222 224 240 207 215 221 220 223 196 208 224 229 235
321 321 323 326 327 326 323 320 316 315 316 317 307 302 282 267 251 233 274 227 231 224 240 253 172 199 202 198 205 217 188 203 215 221 217 218 219 208 199 224 204 210 211 224 208 219 241
315 314 318 323 325 326 326 323 317 317 318 322 313 308 273 262 224 195 228 226 219 232 223 243 247 190 209 213 203 208 205 207 208 219 230 205 224 192 218 221 236 200 223 245 262 288 178
322 312 312 316 319 323 325 323 319 319 321 330 323 317 274 214 212 192 218 235 231 233 249 268 256 235 209 208 211 213 200 209 217 210 228 244 214 223 194 205 237 217 210 239 256 268 284
317 317 311 313 317 320 323 324 323 323 324 330 322 292 300 180 185 206 217 232 232 251 244 260 268 258 243 227 218 216 210 208 214 213 220 238 251 219 188 195 216 221 235 225 245 221 245
308 317 312 314 318 324 327 325 324 333 330 331 303 260 198 179 196 224 229 231 248 246 246 258 262 257 258 263 232 224 224 211 207 213 208 226 245 248 197 196 214 231 216 222 243 250 280
299 307 313 314 317 321 326 329 326 338 345 341 296 274 250 214 227 231 239 236 243 246 250 243 248 250 264 272 274 240 226 218 213 206 223 203 233 241 244 195 193 233 232 220 233 260 270
296 304 307 313 318 320 321 324 325 333 336 338 289 271 222 227 238 254 246 238 232 240 246 249 242 232 237 260 268 272 239 213 213 214 207 224 216 233 227 219 198 205 224 242 236 220 229
300 300 303 309 310 315 317 318 318 321 322 325 251 256 297 281 219 233 248 264 258 232 231 240 246 236 241 244 254 260 264 255 209 212 184 227 223 224 241 255 223 204 213 233 243 249 257
297 294 294 296 300 307 310 316 315 312 307 265 281 328 319 298 294 293 279 234 253 252 229 220 235 233 240 233 246 243 248 254 220 175 184 210 224 229 242 245 253 245 209 203 224 235 234
293 291 293 292 296 298 301 306 310 304 314 283 285 302 317 289 291 288 263 255 237 256 263 241 211 226 248 237 241 244 294 266 251 184 192 212 224 213 234 240 248 245 246 210 212 214 223
296 289 290 289 291 299 297 300 305 299 293 285 289 302 298 284 284 272 276 262 262 243 251 267 235 223 231 267 268 269 269 276 267 201 196 196 220 223 226 231 244 249 243 227 253 267 266
297 293 294 287 287 295 294 290 294 288 291 293 283 281 288 283 286 284 291 292 259 253 250 260 291 216 106 289 247 240 236 257 267 240 216 189 217 216 233 233 235 246 227 161 206 243 308
291 292 298 295 289 286 284 287 287 285 289 297 283 278 282 275 259 339 317 300 288 250 252 231 245 9 8 261 227 220 217 221 231 203 337 214 195 218 208 244 240 233 155 194 221 229 224
284 285 291 292 293 289 286 277 271 269 280 289 285 281 288 277 271 289 304 329 315 331 304 227 242 200 262 243 245 219 223 222 219 216 166 236 300 235 219 237 242 180 145 138 195 163 77
281 281 287 290 290 294 289 274 272 262 273 277 282 282 289 278 281 279 307 308 318 341 324 342 275 210 225 226 236 233 226 225 233 209 196 196 232 238 248 238 243 132 137 178 109 106 111
279 279 285 283 279 283 291 271 260 270 272 271 276 269 272 259 268 291 286 278 277 290 309 311 295 31 353 232 235 247 248 231 211 221 220 213 206 211 265 63 68 71 95 122 121 115 113